This is the latest recevied weather packets stored in our database for station/object KD5FHA. If no packets are shown the sender has not sent any weather packets the latest 10 day(s).
| Time | Temp. | Humidity | Pressure | Rain* | Wind** | Luminosity | Snow |
|---|---|---|---|---|---|---|---|
| 1777731038 | 15.56° C | 74% | 1022.4 hPa | 0 mm | - | 319 W/m² | - |
| 1777730737 | 15.56° C | 74% | 1022.3 hPa | 0 mm | - | 137 W/m² | - |
| 1777730433 | 15° C | 75% | 1022.2 hPa | 0 mm | - | 64 W/m² | - |
| 1777730128 | 15.56° C | 76% | 1022.4 hPa | 0 mm | - | 61 W/m² | - |
| 1777729826 | 15° C | 76% | 1022.1 hPa | 0 mm | - | 64 W/m² | - |
| 1777729522 | 14.44° C | 77% | 1022.3 hPa | 0 mm | - | 75 W/m² | - |
| 1777729219 | 14.44° C | 78% | 1022.1 hPa | 0 mm | - | 68 W/m² | - |
| 1777728916 | 13.89° C | 79% | 1022.1 hPa | 0 mm | - | 65 W/m² | - |
| 1777728613 | 13.33° C | 84% | 1022 hPa | 0 mm | - | 64 W/m² | - |
| 1777728310 | 12.78° C | 88% | 1022.1 hPa | 0 mm | - | 145 W/m² | - |
| 1777728007 | 11.67° C | 93% | 1022.1 hPa | 0 mm | - | 163 W/m² | - |
| 1777727704 | 11.67° C | 95% | 1022.2 hPa | 0 mm | - | 130 W/m² | - |
| 1777727400 | 11.11° C | 95% | 1022.1 hPa | 0 mm | - | 62 W/m² | - |
| 1777727098 | 10.56° C | 96% | 1022 hPa | 0 mm | - | 49 W/m² | - |
| 1777726795 | 10.56° C | 96% | 1022 hPa | 0 mm | - | 49 W/m² | - |
| 1777726492 | 10° C | 97% | 1021.9 hPa | 0 mm | - | 44 W/m² | - |
| 1777726189 | 10° C | 97% | 1021.8 hPa | 0 mm | - | 46 W/m² | - |
| 1777725886 | 9.44° C | 97% | 1021.9 hPa | 0 mm | - | 40 W/m² | - |
| 1777725583 | 9.44° C | 97% | 1021.6 hPa | 0 mm | - | 39 W/m² | - |
| 1777725280 | 9.44° C | 97% | 1021.6 hPa | 0 mm | - | 37 W/m² | - |
| 1777724978 | 8.89° C | 97% | 1021.6 hPa | 0 mm | - | 41 W/m² | - |
| 1777724673 | 8.89° C | 97% | 1021.6 hPa | 0 mm | - | 36 W/m² | - |
| 1777724372 | 8.89° C | 97% | 1021.3 hPa | 0 mm | - | 35 W/m² | - |
| 1777724069 | 8.33° C | 97% | 1021.4 hPa | 0 mm | - | 30 W/m² | - |
| 1777723767 | 8.33° C | 97% | 1021.3 hPa | 0 mm | - | 26 W/m² | - |
* Rain latest hour (hover to see other rain measurements)
** Current wind speed in m/s (hover to see current wind gust speed)